Location: B?jaj?g
(11.7167°N, 92.6667°E)
Time: 05:04:03
(UTC+00:00)

Cosmos 1975 - Pass Details

Date: 18 September 2020
Orbit: 541 x 562 km, 82.5° (Epoch: 20 October)

Event Time Altitude Azimuth Distance (km) Brightness Sun altitude
Rises 12:11:05 0° 182° (S) 2,737 6.4 -6.5°
Reaches altitude 10° 12:13:15 10° 181° (S) 1,844 5.5 -7.0°
Maximum altitude 12:17:19 82° 93° (E) 570 2.8 -8.0°
Drops below altitude 10° 12:21:23 10° 7° (N) 1,847 5.5 -9.0°
Sets 12:23:33 0° 6° (N) 2,742 6.4 -9.5°
